Tracking 32136 objects as of 11-Nov-2025
HD Live streaming from Space Station
objects crossing your sky now

STARLINK-30954

Track STARLINK-30954 now!
10-day predictions
STARLINK-30954 is classified as:


NORAD ID: 58407
Int'l Code: 2023-180F
Perigee: 565.4 km
Apogee: 567.0 km
Inclination: 43.0 °
Period: 95.8 minutes
Semi major axis: 6937 km
RCS: Unknown
Launch date: November 22, 2023
Source: United States (US)
Launch site: AIR FORCE EASTERN TEST RANGE (AFETR)
Your satellite tracking list
Your tracking list is empty




NASA's NSSDC Master Catalog

Two Line Element Set (TLE):
1 58407U 23180F   25314.79113782  .00001275  00000-0  10944-3 0  9997
2 58407  43.0033 341.7445 0001167 276.6315  83.4394 15.02533802109709
Source of the keplerian elements: AFSPC